Weather History for Eau Claire, WI

Change the Weather History Date:

Tuesday, December 25, 2012

  Actual Average Record
Temperature  
Mean Temperature 4 °F 16 °F  
Max Temperature 11 °F 25 °F 45 °F (1994)
Min Temperature -4 °F 8 °F -27 °F (1968)
Degree Days  
Heating Degree Days 61 49  
Month to date heating degree days 992 1134  
Since 1 July heating degree days 2713 2880  
Cooling Degree Days 0 0  
Month to date cooling degree days 0 0  
Year to date cooling degree days 830 579  
Moisture  
Dew Point -3 °F    
Average Humidity 75    
Maximum Humidity 87    
Minimum Humidity 63    
Precipitation  
Precipitation 0.00 in 0.03 in 0.72 in (1945)
Month to date precipitation 1.78 0.84  
Year to date precipitation 24.19 30.82  
Sea Level Pressure  
Sea Level Pressure 30.44 in    
Wind  
Wind Speed 1 mph (WNW)    
Max Wind Speed 8 mph    
Max Gust Speed 10 mph    
Visibility 10 miles    
Events      
T = Trace of Precipitation, MM = Missing Value Source: NWS Daily Summary

Daily Weather History Graph

Daily Weather History Graph

Search for Another Location

Airport:

Trip Planner

Search our weather history database for the weather conditions in past years. The results will help you decide how hot, cold, wet, or windy it might be!

Date:

Astronomy

Dec. 25, 2012 Rise Set
Actual Time 7:42 AM CST 4:30 PM CST
Civil Twilight 7:08 AM CST 5:03 PM CST
Nautical Twilight 6:31 AM CST 5:41 PM CST
Astronomical Twilight 5:55 AM CST 6:16 PM CST
Moon 2:40 PM CST (12/25) 5:13 AM CST (12/25)
Length of Visible Light 9h 55m
Length of Day
8h 47m
Waxing Gibbous, 94% of the Moon is Illuminated
Dec 25
Waxing Gibbous
Dec 28
Full
Jan 4
Last Quarter
Jan 11
New
Jan 18
First Quarter

Hourly Weather History & Observations

Time (CST) Temp. Windchill Dew Point Humidity Pressure Visibility Wind Dir Wind Speed Gust Speed Precip Events Conditions
12:56 AM 5.0 °F -2.1 °F -2.0 °F 73% 30.30 in 10.0 mi North 3.5 mph - N/A   Clear
1:56 AM 1.9 °F - -2.9 °F 80% 30.33 in 10.0 mi Calm Calm - N/A   Clear
2:56 AM -0.9 °F - -4.0 °F 87% 30.36 in 10.0 mi Calm Calm - N/A   Clear
3:56 AM -0.9 °F -8.9 °F -5.1 °F 83% 30.38 in 10.0 mi West 3.5 mph - N/A   Clear
4:56 AM -2.0 °F - -5.1 °F 87% 30.39 in 10.0 mi Calm Calm - N/A   Clear
5:56 AM -2.0 °F - -6.0 °F 83% 30.42 in 10.0 mi Calm Calm - N/A   Clear
6:56 AM -2.9 °F - -7.1 °F 82% 30.43 in 10.0 mi Calm Calm - N/A   Clear
7:56 AM -2.0 °F - -6.0 °F 83% 30.44 in 10.0 mi Calm Calm - N/A   Clear
8:56 AM -0.0 °F - -4.0 °F 83% 30.47 in 10.0 mi Calm Calm - N/A   Clear
9:56 AM 3.0 °F -8.0 °F -4.0 °F 73% 30.49 in 10.0 mi NNW 5.8 mph - N/A   Clear
10:56 AM 5.0 °F - -2.9 °F 70% 30.48 in 10.0 mi Calm Calm - N/A   Clear
11:56 AM 6.1 °F -4.3 °F -2.0 °F 69% 30.47 in 10.0 mi NW 5.8 mph - N/A   Clear
12:56 PM 9.0 °F - -0.9 °F 64% 30.47 in 10.0 mi Calm Calm - N/A   Clear
1:56 PM 10.0 °F 0.4 °F -0.0 °F 64% 30.47 in 10.0 mi West 5.8 mph - N/A   Clear
2:56 PM 10.0 °F 3.6 °F -0.0 °F 64% 30.46 in 10.0 mi West 3.5 mph - N/A   Clear
3:56 PM 10.0 °F - -0.9 °F 61% 30.44 in 10.0 mi Calm Calm - N/A   Clear
4:56 PM 7.0 °F - -0.9 °F 70% 30.45 in 10.0 mi Calm Calm - N/A   Clear
5:56 PM 5.0 °F - -0.9 °F 76% 30.49 in 10.0 mi Calm Calm - N/A   Clear
6:56 PM 5.0 °F - 1.0 °F 84% 30.50 in 10.0 mi Calm Calm - N/A   Clear
7:56 PM 5.0 °F - -2.0 °F 73% 30.50 in 10.0 mi Calm Calm - N/A   Clear
8:56 PM 1.9 °F - -2.9 °F 80% 30.47 in 10.0 mi Calm Calm - N/A   Clear
9:56 PM 3.0 °F - -2.0 °F 80% 30.46 in 10.0 mi Calm Calm - N/A   Clear
10:56 PM -0.0 °F - -4.0 °F 83% 30.45 in 10.0 mi Calm Calm - N/A   Clear
11:56 PM -0.0 °F - -4.0 °F 83% 30.44 in 10.0 mi Calm Calm - N/A   Clear